Location: Pella
(41.4080°N, 92.9160°W)
Time: 06:07:37
(UTC-06:00)

Iridium 91 - Visible Passes

Search period start: 28 November 2014 00:00
Search period end: 08 December 2014 00:00
Orbit: 775 x 780 km, 86.4° (Epoch: 27 November)

Date Brightness Start Highest point End Pass type
(mag) Time Alt. Az. Time Alt. Az. Time Alt. Az.
28 Nov 7.2 04:15:13 25° SSE 04:15:13 25° SSE 04:17:30 10° SSE visible
28 Nov 7.5 05:55:48 11° WSW 05:55:48 11° WSW 05:56:10 10° WSW visible
28 Nov 5.8 17:04:01 10° S 17:09:13 76° W 17:14:26 10° N visible
29 Nov 8.3 03:43:11 10° SE 03:43:11 10° SE 03:43:12 10° SE visible
29 Nov 7.6 05:23:44 12° SW 05:23:44 12° SW 05:24:03 10° SW visible
29 Nov 8.3 18:13:42 10° WSW 18:16:52 16° WNW 18:20:04 10° NW visible
30 Nov 7.6 17:38:35 10° SW 17:43:03 29° W 17:47:33 10° NNW visible
01 Dec 6.5 17:04:18 10° SSW 17:09:22 52° W 17:14:27 10° N visible
02 Dec 8.6 18:15:51 10° W 18:17:14 11° WNW 18:18:38 10° NW visible
03 Dec 8.1 17:39:31 10° WSW 17:43:20 20° WNW 17:47:09 10° NNW visible
04 Dec 7.2 17:04:48 10° SSW 17:09:34 36° W 17:14:21 10° NNW visible
06 Dec 8.3 17:40:56 10° WSW 17:43:39 14° WNW 17:46:24 10° NW visible
07 Dec 7.8 17:05:32 10° SW 17:09:48 26° WNW 17:14:06 10° NNW visible
